Tracking 19219 objects as of 19-Jul-2018
HD Live streaming from Space Station
objects crossing your sky now

WESTFORD NEEDLES

Track WESTFORD NEEDLES now!
10-day predictions
WESTFORD NEEDLES is classified as:


NORAD ID: 20023
Int'l Code: 1963-014EZ
Perigee: 527.7 km
Apogee: 6,280.6 km
Inclination: 84.3 °
Period: 160.3 minutes
Semi major axis: 9775 km
RCS: 0.014 m2 (small)
Launch date: May 9, 1963
Source: United States (US)
Launch site: AIR FORCE WESTERN TEST RANGE (AFWTR)
aabbcc
Your satellite tracking list
Your tracking list is empty




NASA's NSSDC Master Catalog

Two Line Element Set (TLE):
1 20023U 63014EZ  18199.48614922 +.00002576 +00000-0 +19737-2 0  9994
2 20023 084.2941 025.0983 2942600 050.8498 331.9205 08.98289294219645
Source of the keplerian elements: AFSPC